{"data":{"norad_id":39233,"intl_designator":"2013-044A","name":"ES'HAIL 1","alt_names":[],"object_type":"PAYLOAD","status":"ACTIVE","operator":null,"country":"AB","launch_date":"2013-08-29","launch_site_code":"FRGUI","launch_vehicle":null,"mission":null,"orbit_class":"UNKNOWN","rcs_meters":12.5119,"size_class":null,"mass_kg":null,"dimensions":null,"purposes":["comms"],"wikipedia_slug":null,"has_3d_model":false,"image_url":null,"decayed_at":null,"tle_current":{"epoch":"2026-05-25T03:51:54.064224Z","epoch_age_seconds":64237,"freshness":"FRESH","line1":"1 39233U 13044A   26145.16104241  .00000141  00000+0  00000+0 0  9993","line2":"2 39233   0.0520   7.7256 0002632  49.9687 268.5139  1.00271146 46390","mean_motion":1.00271146,"eccentricity":0.0002632,"inclination_deg":0.052,"raan_deg":7.7256,"arg_perigee_deg":49.9687,"mean_anomaly_deg":268.5139,"bstar":0,"rev_number":4639,"period_min":1436.1060558737,"perigee_km":35775.676292438,"apogee_km":35797.871901639,"semimajor_km":42164.911097038,"source":"CELESTRAK","updated_at":"2026-05-25T13:38:13.944882Z"}}}